RH
45 47 46 45 45 44 44 47 49 51 53 51 49 47 41 35 31 28 27 26 25 27 28 30 30 31 30 29 28 27 27 28 28 27 26 25 24 23 23 22 20 17 16
45 46 47 46 46 45 45 48 52 53 52 52 50 49 44 35 33 32 29 28 28 28 29 28 30 33 34 35 34 33 33 34 34 34 33 32 30 28 28 26 25 25 23
47 47 46 45 45 47 46 49 53 54 54 53 51 49 46 40 39 38 35 33 32 31 30 30 30 32 34 36 36 36 36 35 35 35 36 35 35 34 32 30 29 27 26
51 51 46 42 44 47 48 51 54 56 55 54 53 51 50 44 42 39 37 36 33 33 34 34 34 36 36 36 36 37 38 36 34 33 33 33 33 32 32 32 31 30 29
53 54 53 46 44 45 50 54 55 56 56 57 56 56 54 46 42 41 39 38 37 37 35 35 36 38 40 40 40 40 39 38 37 35 33 31 29 28 27 27 29 31 32
53 56 58 52 47 46 49 53 56 56 58 58 58 61 59 48 44 42 41 40 39 38 37 38 39 41 42 43 42 40 39 39 37 36 35 34 33 32 30 29 35 34 32
53 60 60 59 53 51 51 55 57 60 63 62 62 62 61 53 48 46 44 41 40 38 40 42 41 41 43 43 43 42 42 41 40 40 38 37 37 36 39 39 37 35 34
47 54 61 65 63 61 59 61 62 67 70 70 68 67 62 57 51 49 45 43 42 42 43 44 45 46 45 45 44 44 43 42 42 40 38 38 40 42 40 38 36 35 37
44 51 59 64 68 71 69 66 68 71 74 77 81 79 70 65 60 56 52 50 48 48 48 47 48 50 50 48 47 47 46 45 44 43 42 43 47 45 43 41 40 42 41
45 50 57 62 67 72 78 77 71 74 82 82 86 87 88 85 81 70 66 62 58 55 54 52 53 53 53 52 50 50 50 49 48 45 44 43 46 48 45 43 42 41 43
41 45 54 59 60 67 76 77 80 81 85 87 85 88 86 85 87 83 77 75 71 67 63 60 57 60 60 59 57 53 53 52 51 50 49 47 44 46 47 45 44 42 42
39 42 51 55 60 64 70 75 78 84 86 89 91 89 89 88 86 82 78 79 79 75 69 70 68 66 64 62 62 63 60 56 54 53 52 50 47 48 48 45 42 39 37
44 42 46 53 57 60 69 77 81 82 85 88 88 90 91 90 85 83 75 79 77 83 82 75 72 70 66 71 68 66 67 64 60 56 53 50 46 43 38 36 39 40 38
44 49 54 54 61 67 72 75 81 83 85 86 86 90 89 85 83 81 76 82 84 95 87 75 75 80 75 77 75 71 75 69 65 60 54 49 47 42 36 34 37 40 38
37 42 48 54 62 69 74 79 78 83 86 87 88 90 89 84 82 82 83 84 88 85 84 82 86 83 81 86 86 82 77 69 65 60 54 49 44 40 35 33 34 35 33
31 31 36 43 52 61 68 74 75 81 92 95 94 92 93 89 85 89 88 86 89 91 86 80 84 92 93 96 95 88 81 70 63 56 51 46 41 34 35 35 34 33 33
37 35 35 37 43 49 56 64 66 73 84 91 94 94 91 87 87 95 92 88 91 94 89 89 86 94 98 96 90 85 76 64 54 48 42 37 32 29 32 30 28 27 29
54 48 42 42 42 45 50 55 59 66 72 82 92 89 89 92 96 90 97 91 98 94 96 96 94 97 95 88 80 72 63 55 46 39 36 29 21 20 20 20 25 26 29
71 65 56 52 48 49 57 62 65 68 70 70 71 79 96 92 92 92 91 99 98 96 96 96 97 90 83 75 67 55 47 42 38 29 20 18 18 18 19 20 28 29 29
84 78 66 59 57 56 61 68 71 74 74 83 82 87 98 98 94 93 98 98 96 91 94 90 83 75 64 55 48 40 32 26 24 20 19 20 21 22 23 25 25 26 27
84 79 78 72 62 60 65 69 69 71 78 84 95 95 91 97 98 97 98 96 94 88 80 73 60 50 42 33 28 29 29 26 24 19 19 20 22 24 27 29 30 32 33
85 87 81 79 77 71 70 74 83 85 87 99 91 89 93 97 93 96 85 81 76 64 48 44 40 33 29 27 28 26 25 24 22 22 24 27 31 30 32 35 40 42 44
93 92 90 88 88 91 92 83 89 84 89 89 97 98 95 93 86 77 65 53 48 40 33 30 27 27 28 25 21 20 21 24 29 32 33 32 39 37 41 43 47 48 49
97 90 87 97 98 89 85 89 87 91 92 98 95 87 74 62 54 46 36 26 22 20 22 25 25 22 18 18 21 22 28 35 38 40 42 39 41 41 42 41 44 46 48
96 96 91 91 85 94 98 98 96 92 83 71 57 50 45 37 29 22 20 21 22 23 20 17 13 13 15 16 26 35 40 43 42 43 48 48 49 45 40 39 41 46 49
98 98 98 98 98 97 90 71 59 51 46 40 32 26 21 17 15 18 22 21 19 15 12 11 11 13 22 35 40 43 44 44 48 51 56 58 60 59 52 50 50 51 52